[[{"header":{"parameterUnit":"m.s-1","parameterCategory":1,"la1":30.2991,"la2":30.254,"lo1":-89.0895,"lo2":-89.0444,"dy":0.0017,"dx":0.0017,"nx":28,"ny":28,"refTime":"2024-04-16T03:00:00:Z","depth":0,"parameterNumber":2,"parameterNumberName":"U-component_of_WINDS"},"data":[0,0,0,0,0,0,0,0,0,0,0,0,0,0,0,0,0,0,0,0,0,0,0,0,0,0,0,0,0,0,0,0,0,0,0,0,0,0,0,0,0,0,0,0,0,0,0,0,0,0,0,0,0,0,0,0,0,0,-2.929,-2.929,0,-2.9269,-2.9269,-2.9268,-2.9216,-2.9215,-2.9214,-2.9213,-2.919,-2.9191,-2.9191,0,0,0,0,0,0,0,0,0,0,0,0,0,-2.9287,-2.9287,-2.929,-2.929,-2.929,-2.9269,-2.9269,-2.9268,-2.9216,-2.9215,-2.9214,-2.9212,-2.919,-2.9191,-2.9191,0,0,0,0,0,0,0,0,0,0,0,0,0,-2.9279,-2.9287,-2.929,-2.9261,-2.9258,-2.9269,-2.9269,-2.9268,-2.9217,-2.9215,-2.9213,-2.9212,-2.919,-2.9191,-2.9191,-2.9228,0,0,-2.9193,-2.9194,0,0,0,0,0,0,0,0,-2.928,-2.9279,-2.9266,-2.9263,-2.926,-2.9243,-2.9259,-2.9255,-2.9217,-2.9232,-2.9213,-2.9211,-2.9209,-2.9208,-2.9208,-2.9227,-2.9226,-2.9193,-2.9194,-2.9194,-2.9194,0,0,0,0,0,0,0,-2.928,-2.928,-2.9282,-2.9266,-2.9262,-2.925,-2.9247,-2.9258,-2.923,-2.9231,-2.9227,-2.9225,-2.9208,-2.9207,-2.9207,-2.9226,-2.9193,-2.9194,-2.9194,-2.9195,-2.9275,-2.9277,0,0,0,0,0,0,-2.9285,-2.9281,-2.9282,-2.9281,-2.9266,-2.9251,-2.9248,-2.925,-2.923,-2.9225,-2.9227,-2.9223,-2.9207,-2.9206,-2.9206,-2.9248,-2.9194,-2.9195,-2.9195,-2.9274,-2.9276,-2.9278,0,0,0,0,0,0,-2.9285,-2.9286,-2.9283,-2.928,-2.9279,-2.9253,-2.9256,-2.9251,-2.9251,-2.9227,-2.9222,-2.9232,-2.9206,-2.9205,-2.9223,-2.9246,-2.9195,-2.9196,-2.9271,-2.9274,-2.9277,-2.9331,0,0,0,0,0,0,-2.9285,-2.9286,-2.9299,-2.9281,-2.9279,-2.9301,-2.9258,-2.9252,-2.9252,-2.9247,-2.923,-2.9226,-2.9205,-2.9223,-2.9224,-2.9246,-2.9196,-2.9269,-2.9273,-2.9276,-2.9327,-2.9336,-2.9343,0,0,0,0,0,-2.9285,-2.9315,-2.93,-2.9301,-2.9295,-2.9302,-2.9301,-2.9276,-2.9254,-2.9267,-2.9253,-2.9226,-2.9244,-2.9225,-2.9226,-2.9249,-2.9268,-2.9272,-2.9276,-2.9324,-2.9334,-2.9342,0,0,0,0,0,0,-2.9336,-2.9312,-2.9295,-2.932,-2.9314,-2.9293,-2.9309,-2.9288,-2.9287,-2.9282,-2.9251,-2.9248,-2.927,-2.9262,-2.9241,-2.9284,-2.9252,-2.9256,-2.9288,-2.9297,-2.9305,-2.9306,-2.9197,0,0,0,0,0,-2.9351,-2.9359,-2.9337,-2.9361,-2.9359,-2.9335,-2.9337,-2.9319,-2.9311,-2.9307,-2.9294,-2.9287,-2.9291,-2.9294,-2.9296,-2.9327,-2.9322,-2.9343,-2.9351,-2.9357,-2.9361,-2.9376,-2.9385,-2.9291,-2.9291,-2.929,0,0,-2.938,-2.9368,-2.9374,-2.9371,-2.9364,-2.9373,-2.9333,-2.9343,-2.935,-2.9309,-2.9325,-2.9315,-2.9306,-2.933,-2.934,-2.9324,-2.9386,-2.9362,-2.9367,-2.9367,-2.9381,-2.939,-2.9398,-2.9293,-2.9293,-2.9292,0,0,-2.9438,-2.943,-2.9449,-2.9443,-2.9433,-2.9417,-2.9422,-2.9406,-2.9397,-2.9414,-2.9383,-2.9391,-2.9398,-2.9393,-2.9391,-2.945,-2.9425,-2.9452,-2.949,-2.9506,-2.9513,-2.952,-2.954,-2.9548,-2.9456,-2.9456,-2.9456,0,-2.9475,-2.9487,-2.9461,-2.9474,-2.9474,-2.9439,-2.9458,-2.9454,-2.9445,-2.9446,-2.9428,-2.9437,-2.9428,-2.9451,-2.9465,-2.9466,-2.947,-2.9452,-2.9514,-2.9521,-2.9526,-2.9545,-2.9553,-2.9459,-2.9458,-2.9458,-2.9458,0,-2.9533,-2.9542,-2.9559,-2.9552,-2.9554,-2.957,-2.9547,-2.9552,-2.9535,-2.9521,-2.9539,-2.9527,-2.9527,-2.9532,-2.9514,-2.9552,-2.9542,-2.952,-2.9487,-2.9539,-2.9556,-2.9563,-2.9463,-2.9462,-2.9461,-2.946,0,0,-2.9619,-2.96,-2.9606,-2.9603,-2.9591,-2.9597,-2.9613,-2.9613,-2.9618,-2.9614,-2.9626,-2.9634,-2.9614,-2.9612,-2.9594,-2.9608,-2.9655,-2.9584,-2.9583,-2.9597,-2.9696,-2.9711,-2.972,-2.964,-2.9641,-2.9642,-2.9696,0,-2.9673,-2.9697,-2.9676,-2.9704,-2.9712,-2.968,-2.9694,-2.9688,-2.9676,-2.9682,-2.9669,-2.9675,-2.9648,-2.9647,-2.966,-2.9646,-2.9674,-2.9643,-2.965,-2.965,-2.9651,-2.9729,-2.9745,-2.9797,-2.9703,-2.9704,-2.9705,0,-2.9737,-2.9737,-2.9766,-2.9753,-2.9756,-2.9768,-2.9767,-2.9773,-2.9766,-2.9757,-2.9756,-2.9735,-2.975,-2.9719,-2.9739,-2.9718,-2.972,-2.9714,-2.9716,-2.9713,-2.9679,-2.9728,-2.9813,-2.982,-2.9715,-2.9714,-2.9714,0,-2.9796,-2.9803,-2.9822,-2.982,-2.9806,-2.9815,-2.9809,-2.9801,-2.9803,-2.9803,-2.9804,-2.9805,-2.9806,-2.9808,-2.9788,-2.9767,-2.981,-2.9777,-2.9802,-2.9802,-2.981,-2.9809,-2.9895,-2.9815,-2.9815,-2.9815,-2.9814,0,-2.9856,-2.9875,-2.9848,-2.9859,-2.988,-2.9856,-2.9877,-2.9868,-2.9862,-2.9871,-2.9845,-2.9854,-2.9828,-2.9834,-2.9819,-2.9837,-2.9838,-2.9831,-2.9826,-2.9832,-2.9833,-2.9831,-2.9827,-2.9817,-2.9816,-2.9816,-2.9815,0,-2.9924,-2.9907,-2.9925,-2.991,-2.9907,-2.9923,-2.9911,-2.9921,-2.9909,-2.9921,-2.9922,-2.9903,-2.991,-2.9891,-2.9894,-2.9884,-2.9911,-2.9901,-2.9913,-2.9909,-2.9934,-2.9931,-3.002,-3.003,-2.9945,-2.9946,-2.9947,0,-2.9963,-2.9977,-2.9964,-2.9969,-2.9965,-2.9972,-2.9974,-2.9953,-2.9956,-2.9951,-2.9961,-2.9966,-2.9968,-2.9981,-2.9967,-2.997,-2.9959,-2.9991,-2.9959,-2.9965,-2.9958,-2.9957,-2.9958,-2.9996,-2.9997,-2.9998,-2.9999,0,-3.0033,-3.0024,-3.0028,-3.003,-3.0034,-3.0034,-3.0032,-3.0038,-3.0014,-3.002,-3.0026,-3.0029,-3.0033,-3.0038,-3.0038,-3.0033,-3.0012,-3.0009,-3.0014,-3.002,-3.0025,-3.0021,-2.9928,-3.0006,-3.0006,-3.0005,-3.0005,-3.0004,-3.0086,-3.0097,-3.0091,-3.0096,-3.0093,-3.0093,-3.0102,-3.0092,-3.0097,-3.0099,-3.0086,-3.0096,-3.009,-3.0089,-3.0086,-3.0093,-3.0079,-3.0087,-3.0089,-3.0091,-3.0094,-3.0026,-3.0093,-3.0093,-3.0093,-3.0093,-3.0092,0,-3.0154,-3.0149,-3.0155,-3.0153,-3.0159,-3.014,-3.0138,-3.0143,-3.0152,-3.0149,-3.0152,-3.0161,-3.0166,-3.0154,-3.0157,-3.0166,-3.0156,-3.0167,-3.0165,-3.0164,-3.0107,-3.0102,-3.0175,-3.0175,-3.0175,-3.0175,-3.0175,-3.0175,-3.0189,-3.0207,-3.0198,-3.0215,-3.0209,-3.0219,-3.0219,-3.0219,-3.0216,-3.0227,-3.0231,-3.0224,-3.0217,-3.022,-3.0224,-3.0221,-3.0222,-3.0237,-3.023,-3.0176,-3.0168,-3.016,-3.0155,-3.0238,-3.0238,-3.0285,-3.0286,-3.0286]},{"header":{"parameterUnit":"m.s-1","parameterCategory":1,"la1":30.2991,"la2":30.254,"lo1":-89.0895,"lo2":-89.0444,"dy":0.0017,"dx":0.0017,"nx":28,"ny":28,"refTime":"2024-04-16T03:00:00:Z","depth":0,"parameterNumber":3,"parameterNumberName":"V-component_of_WINDS"},"data":[0,0,0,0,0,0,0,0,0,0,0,0,0,0,0,0,0,0,0,0,0,0,0,0,0,0,0,0,0,0,0,0,0,0,0,0,0,0,0,0,0,0,0,0,0,0,0,0,0,0,0,0,0,0,0,0,0,0,2.7241,2.7241,0,2.7199,2.7199,2.7199,2.7203,2.7203,2.7204,2.7205,2.7159,2.7157,2.7155,0,0,0,0,0,0,0,0,0,0,0,0,0,2.7323,2.7321,2.7241,2.7241,2.724,2.72,2.7199,2.7198,2.7203,2.7203,2.7204,2.7205,2.716,2.7158,2.7155,0,0,0,0,0,0,0,0,0,0,0,0,0,2.7285,2.7321,2.7241,2.7238,2.7237,2.72,2.7199,2.7198,2.7202,2.7203,2.7204,2.7205,2.716,2.7158,2.7155,2.7118,0,0,2.7147,2.7145,0,0,0,0,0,0,0,0,2.7287,2.7282,2.7239,2.7238,2.7237,2.7207,2.7211,2.7171,2.7202,2.7215,2.7205,2.7206,2.7174,2.717,2.716,2.7116,2.7114,2.7146,2.7145,2.7144,2.7143,0,0,0,0,0,0,0,2.7289,2.7283,2.7225,2.7238,2.7237,2.7237,2.7233,2.7203,2.719,2.7214,2.7214,2.721,2.7174,2.7163,2.7159,2.7114,2.7146,2.7144,2.7142,2.7141,2.7038,2.7037,0,0,0,0,0,0,2.7293,2.7286,2.7226,2.7223,2.7265,2.7235,2.723,2.7216,2.719,2.7187,2.7209,2.721,2.7167,2.7162,2.7158,2.7114,2.7144,2.7141,2.7139,2.7039,2.7038,2.7036,0,0,0,0,0,0,2.7295,2.7288,2.7228,2.7255,2.7247,2.7232,2.7216,2.7214,2.7204,2.7186,2.7183,2.72,2.7168,2.7161,2.7128,2.7112,2.714,2.7137,2.704,2.7039,2.7037,2.7025,0,0,0,0,0,0,2.7297,2.7289,2.7275,2.7254,2.7246,2.72,2.7215,2.7213,2.7199,2.72,2.7177,2.7174,2.7168,2.7132,2.7126,2.7109,2.7135,2.7042,2.7039,2.7038,2.7027,2.7023,2.702,0,0,0,0,0,2.73,2.7272,2.7274,2.7267,2.7228,2.7199,2.7194,2.7188,2.7198,2.7184,2.7172,2.7175,2.7115,2.7129,2.7121,2.7103,2.7043,2.704,2.7038,2.7028,2.7024,2.702,0,0,0,0,0,0,2.729,2.727,2.7271,2.7236,2.7219,2.72,2.7182,2.7183,2.7162,2.7164,2.7157,2.7152,2.7118,2.7107,2.7124,2.7067,2.708,2.7076,2.7075,2.7071,2.7068,2.7071,2.7133,0,0,0,0,0,2.7284,2.7263,2.7246,2.7216,2.7208,2.7196,2.7183,2.718,2.7162,2.7155,2.7141,2.7123,2.71,2.7085,2.7062,2.7025,2.702,2.7009,2.7006,2.7003,2.6999,2.6979,2.6974,2.7028,2.7028,2.7028,0,0,2.7271,2.7257,2.7244,2.7214,2.7201,2.7178,2.719,2.7166,2.7149,2.7151,2.7119,2.7108,2.7087,2.7052,2.7036,2.7042,2.6984,2.7,2.6998,2.6996,2.6976,2.6971,2.6967,2.7027,2.7027,2.7027,0,0,2.7236,2.7223,2.7198,2.7185,2.7165,2.7157,2.7151,2.7131,2.7125,2.7093,2.7094,2.7073,2.7034,2.7019,2.7006,2.6966,2.6968,2.6959,2.6942,2.6922,2.6918,2.6914,2.69,2.6896,2.6956,2.6956,2.6956,0,2.7222,2.7189,2.7184,2.716,2.7147,2.7149,2.7123,2.7109,2.7083,2.7073,2.7081,2.7032,2.7018,2.6979,2.697,2.6959,2.6952,2.6962,2.6919,2.6915,2.6912,2.6898,2.6893,2.6955,2.6955,2.6955,2.6955,0,2.7174,2.7151,2.7132,2.7108,2.7093,2.7068,2.7058,2.7043,2.7041,2.7033,2.7001,2.6984,2.6959,2.695,2.6947,2.6911,2.6916,2.6921,2.6934,2.6906,2.6893,2.6888,2.6954,2.6954,2.6954,2.6954,0,0,2.7131,2.7105,2.7099,2.7088,2.7066,2.7048,2.7023,2.6999,2.6987,2.6968,2.6947,2.6914,2.6919,2.6905,2.69,2.6883,2.6853,2.6891,2.689,2.6885,2.6813,2.681,2.6804,2.6854,2.6853,2.6852,2.6815,0,2.7095,2.7052,2.7047,2.7008,2.6987,2.6988,2.6966,2.695,2.6942,2.6922,2.6912,2.6889,2.6897,2.6889,2.6872,2.6861,2.6839,2.6863,2.6834,2.6833,2.684,2.6798,2.6794,2.676,2.681,2.6809,2.6809,0,2.7046,2.7028,2.6988,2.697,2.6961,2.6941,2.692,2.6901,2.6882,2.6877,2.6862,2.686,2.6833,2.6847,2.6811,2.6827,2.6815,2.6808,2.6806,2.6804,2.682,2.6795,2.6748,2.6744,2.6801,2.6802,2.6802,0,2.7021,2.6986,2.6957,2.6948,2.6926,2.6912,2.6902,2.6885,2.6871,2.6852,2.6843,2.682,2.6808,2.679,2.6782,2.6793,2.6746,2.6759,2.6741,2.6741,2.6732,2.6733,2.6684,2.6723,2.6723,2.6723,2.6723,0,2.6981,2.6956,2.6946,2.6928,2.6901,2.6895,2.6867,2.6858,2.6842,2.6823,2.6822,2.6803,2.6793,2.6773,2.6766,2.6737,2.6731,2.6726,2.6725,2.6727,2.6728,2.6719,2.6722,2.6721,2.6722,2.6722,2.6722,0,2.6948,2.694,2.6909,2.6891,2.6886,2.6866,2.6851,2.6833,2.6825,2.68,2.6794,2.6781,2.6757,2.6747,2.6717,2.6713,2.668,2.668,2.6686,2.6686,2.6669,2.6671,2.6613,2.6606,2.6649,2.6649,2.6648,0,2.6924,2.6905,2.6885,2.6873,2.6863,2.6842,2.6828,2.6822,2.6807,2.6785,2.6771,2.6747,2.6728,2.669,2.6677,2.6654,2.6654,2.6635,2.6651,2.6653,2.6655,2.6656,2.6654,2.6633,2.6632,2.6632,2.6632,0,2.6882,2.6879,2.686,2.6839,2.6824,2.6807,2.679,2.678,2.677,2.6754,2.6731,2.6716,2.6686,2.6663,2.6639,2.6628,2.6628,2.6627,2.6622,2.6624,2.6629,2.6627,2.668,2.6628,2.6629,2.6629,2.6629,2.6629,2.6853,2.6837,2.6821,2.68,2.6787,2.6772,2.6755,2.6745,2.6725,2.6702,2.6698,2.6673,2.6655,2.6624,2.6612,2.6591,2.6596,2.6588,2.6586,2.6585,2.6584,2.6632,2.6587,2.6587,2.6587,2.6587,2.6587,0,2.6811,2.6801,2.6782,2.676,2.6743,2.6746,2.6728,2.6714,2.6692,2.6676,2.6657,2.663,2.6607,2.6593,2.657,2.6556,2.6556,2.655,2.6552,2.6549,2.6581,2.6588,2.6551,2.6551,2.6551,2.6551,2.6551,2.6551,2.6788,2.6761,2.6756,2.6723,2.6712,2.6689,2.6678,2.6664,2.6651,2.6621,2.6603,2.6594,2.6579,2.6555,2.6534,2.653,2.6522,2.6516,2.6513,2.6543,2.6547,2.655,2.6557,2.6514,2.6514,2.6483,2.6483,2.6482]}]]